Location: Caltech
(34.1382°N, 118.1253°W)
Time: 15:08:50
(UTC-07:00)

Iridium 21 - Visible Passes

Search period start: 23 April 2014 00:00
Search period end: 03 May 2014 00:00
Orbit: 776 x 779 km, 86.4° (Epoch: 23 April)

Date Brightness Start Highest point End Pass type
(mag) Time Alt. Az. Time Alt. Az. Time Alt. Az.
23 Apr 6.6 20:34:44 10° NNE 20:39:00 25° E 20:40:41 21° ESE visible
23 Apr 7.2 22:15:11 10° NNW 22:19:37 29° W 22:21:11 25° WSW visible
24 Apr 7.3 20:02:52 10° NE 20:05:12 13° ENE 20:07:32 10° ESE visible
24 Apr 6.0 21:41:10 10° N 21:46:16 57° W 21:48:16 35° SSW visible
25 Apr 5.4 21:07:34 10° N 21:12:47 73° E 21:15:22 30° SSE visible
26 Apr 6.1 20:34:23 10° NNE 20:39:12 37° E 20:42:30 18° SE visible
26 Apr 7.8 22:15:53 10° NW 22:19:34 20° W 22:23:01 11° SW visible
27 Apr 6.9 20:01:45 10° NNE 20:05:29 20° E 20:09:11 10° SE visible
27 Apr 6.8 21:41:30 10° NNW 21:46:17 38° W 21:50:11 15° SSW visible
28 Apr 5.7 21:07:40 10° N 21:12:52 75° W 21:17:24 14° S visible
29 Apr 5.6 20:34:13 10° N 20:39:21 56° E 20:44:26 10° SSE visible
29 Apr 8.2 22:17:07 10° NW 22:19:28 13° W 22:21:49 10° WSW visible
30 Apr 6.4 20:01:13 10° NNE 20:05:42 29° E 20:10:09 10° SE visible
30 Apr 7.5 21:42:01 10° NNW 21:46:14 26° W 21:50:27 10° SW visible
01 May 6.4 21:07:53 10° NNW 21:12:54 50° W 21:17:53 10° SSW visible
02 May 5.5 20:34:12 10° N 20:39:26 84° E 20:44:38 10° S visible
